TimeEST,TemperatureF,Dew PointF,Humidity,Sea Level PressureIn,VisibilityMPH,Wind Direction,Wind SpeedMPH,Gust SpeedMPH,PrecipitationIn,Events,Conditions,WindDirDegrees,DateUTC
12:58 AM,24.8,1.4,36,29.94,10.0,SSW,13.8,27.6,N/A,,Overcast,210,2014-01-25 05:58:00
1:58 AM,25.0,3.2,39,29.91,10.0,SSW,21.9,27.6,N/A,,Partly Cloudy,200,2014-01-25 06:58:00
2:58 AM,25.5,3.7,39,29.86,10.0,SSW,17.3,28.8,N/A,,Mostly Cloudy,210,2014-01-25 07:58:00
3:03 AM,24.8,5.0,43,29.82,10.0,SSW,25.3,36.8,N/A,Snow,Light Snow,210,2014-01-25 08:03:00
3:58 AM,24.1,12.6,62,29.82,9.0,SSW,20.7,28.8,0.00,Snow,Light Snow,210,2014-01-25 08:58:00
4:03 AM,24.8,14.0,64,29.77,8.0,SSW,18.4,28.8,N/A,Snow,Light Snow,200,2014-01-25 09:03:00
4:08 AM,23.0,14.0,68,29.77,8.0,SSW,18.4,26.5,N/A,Snow,Light Snow,200,2014-01-25 09:08:00
4:28 AM,24.8,14.0,64,29.75,10.0,SSW,18.4,24.2,N/A,Snow,Light Snow,200,2014-01-25 09:28:00
4:33 AM,24.8,14.0,64,29.75,10.0,SSW,17.3,25.3,N/A,,Overcast,200,2014-01-25 09:33:00
4:48 AM,24.8,14.0,64,29.74,10.0,South,15.0,-,N/A,,Overcast,190,2014-01-25 09:48:00
4:49 AM,24.8,14.0,64,29.74,10.0,South,15.0,-,N/A,Snow,Light Snow,190,2014-01-25 09:49:00
4:58 AM,24.6,14.2,65,29.78,6.0,SSW,12.7,28.8,0.00,Snow,Light Snow,200,2014-01-25 09:58:00
5:18 AM,24.8,15.8,69,29.74,3.0,SSW,23.0,31.1,N/A,Snow,Light Snow,210,2014-01-25 10:18:00
5:23 AM,24.8,17.6,74,29.73,2.5,SSW,16.1,29.9,N/A,Snow,Light Snow,210,2014-01-25 10:23:00
5:33 AM,23.0,17.6,80,29.73,1.8,SSW,15.0,27.6,N/A,Snow,Light Snow,200,2014-01-25 10:33:00
5:38 AM,23.0,17.6,80,29.73,1.5,SSW,19.6,26.5,N/A,Snow,Light Snow,210,2014-01-25 10:38:00
5:48 AM,23.0,19.4,86,29.72,1.0,SSW,17.3,23.0,N/A,Snow,Light Snow,210,2014-01-25 10:48:00
5:53 AM,23.0,19.4,86,29.72,0.8,SSW,15.0,-,N/A,Snow,Light Snow,210,2014-01-25 10:53:00
5:58 AM,22.6,19.6,88,29.76,0.8,SSW,16.1,23.0,0.00,Snow,Light Snow,200,2014-01-25 10:58:00
6:08 AM,23.0,19.4,86,29.71,0.8,SSW,15.0,-,N/A,Snow,Light Snow,210,2014-01-25 11:08:00
6:18 AM,23.0,19.4,86,29.71,1.0,SSW,13.8,19.6,N/A,Snow,Light Snow,200,2014-01-25 11:18:00
6:33 AM,23.0,21.2,93,29.71,1.0,SSW,11.5,21.9,N/A,Snow,Light Snow,200,2014-01-25 11:33:00
6:48 AM,23.0,21.2,93,29.70,1.2,South,12.7,-,N/A,Snow,Light Snow,190,2014-01-25 11:48:00
6:53 AM,23.0,21.2,93,29.70,1.5,South,15.0,20.7,N/A,Snow,Light Snow,190,2014-01-25 11:53:00
6:58 AM,22.8,20.5,91,29.75,1.5,SSW,12.7,20.7,0.01,Snow,Light Snow,200,2014-01-25 11:58:00
7:03 AM,23.0,21.2,93,29.71,1.8,SSW,13.8,-,N/A,Snow,Light Snow,200,2014-01-25 12:03:00
7:08 AM,23.0,21.2,93,29.71,1.5,SSW,13.8,-,N/A,Snow,Light Snow,200,2014-01-25 12:08:00
7:48 AM,23.0,21.2,93,29.70,0.8,SSW,13.8,23.0,N/A,Snow,Light Snow,200,2014-01-25 12:48:00
7:58 AM,23.5,21.2,91,29.74,0.8,SSW,13.8,20.7,0.01,Snow,Light Snow,210,2014-01-25 12:58:00
8:03 AM,23.0,21.2,93,29.70,1.0,SSW,17.3,24.2,N/A,Snow,Light Snow,210,2014-01-25 13:03:00
8:18 AM,24.8,21.2,86,29.71,0.8,SSW,13.8,20.7,N/A,Snow,Light Snow,210,2014-01-25 13:18:00
8:23 AM,24.8,21.2,86,29.70,0.5,SSW,13.8,20.7,N/A,Fog-Snow,Light Freezing Fog,210,2014-01-25 13:23:00
8:58 AM,24.8,21.9,89,29.74,0.5,SSW,17.3,25.3,0.00,Fog-Snow,Light Freezing Fog,210,2014-01-25 13:58:00
9:13 AM,24.8,21.2,86,29.70,0.8,SW,15.0,23.0,N/A,Snow,Light Snow,220,2014-01-25 14:13:00
9:28 AM,24.8,21.2,86,29.71,0.5,SW,15.0,21.9,N/A,Fog,Light Freezing Fog,220,2014-01-25 14:28:00
9:38 AM,26.6,23.0,86,29.70,1.0,SW,16.1,24.2,N/A,,Overcast,220,2014-01-25 14:38:00
9:55 AM,26.8,22.3,83,29.74,10.0,SW,13.8,21.9,0.00,,Mostly Cloudy,230,2014-01-25 14:55:00
10:02 AM,26.6,23.0,86,29.71,10.0,SW,12.7,-,N/A,,Overcast,220,2014-01-25 15:02:00
10:58 AM,30.2,22.1,72,29.74,10.0,SW,15.0,19.6,N/A,,Overcast,220,2014-01-25 15:58:00
11:58 AM,34.5,21.9,60,29.71,10.0,SW,15.0,20.7,N/A,,Overcast,230,2014-01-25 16:58:00
12:58 PM,36.5,22.1,56,29.69,10.0,SW,13.8,20.7,N/A,,Overcast,230,2014-01-25 17:58:00
1:58 PM,39.0,23.4,53,29.67,10.0,WSW,20.7,28.8,N/A,,Mostly Cloudy,250,2014-01-25 18:58:00
2:32 PM,39.2,23.0,52,29.64,10.0,WNW,11.5,24.2,N/A,,Overcast,300,2014-01-25 19:32:00
2:58 PM,37.6,23.7,57,29.68,10.0,West,18.4,26.5,N/A,,Overcast,280,2014-01-25 19:58:00
3:58 PM,39.7,16.7,39,29.71,10.0,West,16.1,34.5,0.01,,Partly Cloudy,270,2014-01-25 20:58:00
4:58 PM,36.0,1.4,23,29.76,10.0,WSW,27.6,42.6,N/A,,Clear,250,2014-01-25 21:58:00
5:58 PM,32.7,8.4,36,29.82,10.0,WNW,17.3,26.5,N/A,,Clear,290,2014-01-25 22:58:00
6:58 PM,28.6,3.7,35,29.89,10.0,WNW,12.7,-,N/A,,Clear,300,2014-01-25 23:58:00
7:58 PM,25.5,5.0,42,29.93,10.0,WNW,13.8,-,N/A,,Clear,290,2014-01-26 00:58:00
8:58 PM,23.2,4.8,45,29.97,10.0,WNW,9.2,-,N/A,,Clear,290,2014-01-26 01:58:00
9:58 PM,21.0,3.4,47,29.98,10.0,WNW,10.4,-,N/A,,Clear,290,2014-01-26 02:58:00
10:58 PM,18.7,3.4,51,30.00,10.0,West,6.9,-,N/A,,Clear,270,2014-01-26 03:58:00
11:58 PM,17.2,3.9,56,30.00,10.0,West,5.8,-,N/A,,Clear,260,2014-01-26 04:58:00